Погода в Тюкалинске

Погода в Тюкалинске : погода сейчас, прогноз погоды и архив. Всё, что Вы хотите узнать о погоде в Тюкалинске!

Хотите узнать прогноз погоды в Тюкалинске? Тогда Вам сюда: Погода в Тюкалинске

Поиск расширенной информации на нашем сайте:

Другие новости

Новости СМИ2

Главная страница сайта

Новости сайта

03.07.2017

Напоминаем, что на нашем специализированном сайте Метеоцентр.Азия вы можете получить высокодетализированные автоматические прогнозы погоды по пунктам России, СНГ и мира в авиационном формате (включающие направление и скорость ветра, видимость, явления погоды, количество и форму облачности, нижнюю и верхнюю границу облачности).


Погода в Тюкалинске - сегодня

Время (UTC), дата Ветер
(°,м/с) 
Видим.   Явления Облачность Т
(°С)
Тd
(°С)
f(%) Тe
(°С)
Pmin
(гПа)
dP
(гПа)
Po
(мм)
O2
(г/м3)
Тmin Tmax R s Состояние
почвы
21 10.10.18 180 (Ю) 10 км    8/0 верхняя 
[Ci fib]
+2.4 -1.5 75 +1  1018.6  -2.3  753  301           
03 11.10.18 180 (Ю) 5{10}  20000 м    10/10 600 м 
[Sc]
+5.1 -0.4 68 +3  1009.9  -3.8  747  295  +1.3        сухая 
15 11.10.18 260 (З) 5{18}  10 км    10/0 средняя 
[As op]
+11.4 +0.7 48 +10  999.9  -0.2  740  286    +15       
21 11.10.18 210 (ЮЗ) 5{15}  10 км    9/9 600 м 
[Sc]
+6.7 +3.3 79 +5  998.5  -0.8  738  290           
03 12.10.18 230 (ЮЗ) 5{11}  20000 м    4/3 600 м средняя 
[Sc|Ac trans]
+4.6 +0.2 73 +2  997.9  0.3  738  292  +4.5        сухая 
09 12.10.18 270 (З) 20000 м  {ливн. осадки}  10/10 600 м кучево-дожд. 
[Cb cap]
+4.2 -0.2 73 +3  1000.4  1.4  740  293           
15 12.10.18 290 (З) 10 км  в посл. час ливневой дождь  10/10 600 м кучево-дожд. 
[Cb cap]
+2.1 -0.5 83 +1  1002.8  0.9  741  296    +5.3  0.3     
21 12.10.18 310 (СЗ) 10 км  {ливн. осадки}  10/10 600 м кучево-дожд. 
[Cb cap]
+0.6 -0.5 92 -1  1002.6  741  298           
03 13.10.18 290 (З) 20000 м  {снег}  6/0 средняя, верхняя 
[Ac trans|Cc]
-1.3 -3.1 88 -3  1003.9  0.9  742  301  -1.5    0.8  мокрый или
старый снег
50-90% 
09 13.10.18 340 (С) 4000 м  слаб. крупа{ливн. осадки}  9/9 600 м кучево-дожд. 
[Cb cap]
+2.1 -4.8 60 -1  1004.2  0.2  742  297           
21 13.10.18 210 (ЮЗ) 10 км    10/10 600 м 
[Sc]
-0.8 -2.5 88 -2  1007.9  0.9  745  301           
03 14.10.18 200 (Ю) 20000 м    10/10 600 м 
[Sc]
-1 -2.4 90 -2  1009.9  746  302  -1.6        замёрзшая 
09 14.10.18 190 (Ю) 20000 м    10/10 300 м 
[Sc]
+0.4 -2.5 81 -1  1012.6  1.5  749  301           
21 14.10.18 150 (ЮВ) 10 км    10/0 средняя 
[As trans]
-0.3 -1.5 92 -1  1016  0.9  751  303           
03 15.10.18 130 (ЮВ) 20000 м    10/10 600 м 
[Sc]
-0.2 -1.2 93 -1  1018.1  1.2  753  304  -1.2    0.0    сухая 
09 15.10.18 100 (В) 20000 м  {снег}  10/10 600 м 
[Sc]
+2.2 -1.3 78 +1  1018.9  753  301           
15 15.10.18 030 (СВ) 10 км    4/0 средняя 
[Ac trans]
-1.5 -3 89 -1  1020.8  0.6  755  306    +2.7  0.0     
21 15.10.18 030 (СВ) 4000 м  дымка  4/0 верхняя 
[Ci fib]
-3.5 -4.3 94 -3  1020.8  -0.3  754  308           
09 16.10.18 360 (С) 20000 м    6/6 1000 м 
[Cu hum]
+4.5 -4.9 50 +4  1020.5  -0.9  755  300           
15 16.10.18 320 (СЗ) 10 км    3/0 верхняя 
[Cc]
-1.6 -2.7 92 -3  1021.8  0.4  755  306    +5.1       
21 16.10.18 220 (ЮЗ) 0500 м  туман  10/0 средняя 
[As trans]
-2.9 -3.6 95 -4  1019.9  -0.9  754  307           
15 17.10.18 180 (Ю) 7-11{14}  4000 м  слаб. дождь{снег}  10/10 600 м 
[Sc]
+0.7 -0.7 90 -3  1004.1  -3.3  742  298    +2.5  0.3     
03 18.10.18 140 (ЮВ) 4000 м  слаб. снег{дождь}  10/10 300 м 
[Ns]
+1.1 +0.3 94 -1  994.1  -1.3  735  295  +0.3    равномерный
мокрый или
старый снег
100% 
09 18.10.18 190 (Ю) 20000 м  {дождь}  10/10 600 м кучево-дожд. 
[Cb cap]
+2.4 +0.4 87 +1  995.5  1.4  736  294           
21 18.10.18 100 (В) 10 км    10/10 600 м 
[Sc]
+0.6 -0.9 90 1002.7  1.9  741  298           
Время (UTC), дата Ветер
(°,м/с) 
Видим.   Явления Облачность Т
(°С)
Тd
(°С)
f(%) Тe
(°С)
Pmin
(гПа)
dP
(гПа)
Po
(мм)
O2
(г/м3)
Тmin Tmax R s Состояние
почвы

Для получения пояснительной информации подведите курсор к названию столбца.

ПОГОДА в Тюкалинске - архив

Всё, что Вы хотите узнать о погоде в Тюкалинске - удобно и подробно!

Выберите нужную дату (начиная с 1 января 2015* года) и нажмите кнопку "Найти".
Будут отображены архивные сводки погоды по пункту Тюкалинск, начиная с указанной даты.


Отображать данные в формате CSV (для использования в таблицах Excel)


Внимание! Наш архив погоды предназначен исключительно для личного некоммерческого использования в познавательных целях. Если Вам необходимы официальные справки о состоянии погоды (для производственных, юридических, коммерческих и т.п. целей), обращайтесь в органы Росгидромета.

*Примечание: данная дата относится к архиву по метеостанциям СССР (Россия, СНГ, Балтия).
Архив по метеостанциям Зарубежной Европы и Азии (кроме Китая) хранится 10 дней, по другим регионам земного шара (Китай, Африка, Америка, Австралия, Океания) - 1 день.

Тюкалинск - район местоположения метеостанции


Название, широта, долгота, высота метеостанции:
Тюкалинск 55.9°ш. 72.2°д. 118 м над ур. моря [Российская Федерация]

Дополнительная информация

В oтличие oт бoльшинства пoгoдных сайтoв мы публикуем пoдрoбную метеoинфoрмацию в детальнoм прoфессиoнальнoм фoрмате.

Характеристики температуры и влажнoсти вoздуха измеряются на высoте 2 м в тени вдали oт зданий и деревьев.
Скoрoсть ветра измеряется на высoте 10 м (на урoвне рoста челoвека скoрoсть ветра ниже в 1.5-2 раза). Если метеoстанция нахoдится в гoрoде или в лесу, тo скoрoсть ветра занижена на 2-4 м/с пo сравнению с oткрытым местoм. Скoрoсть ветра над акватoриями крупных рек и oзёр, а также на вершинах хoлмoв на 2-5 м/с выше, чем в oбычных услoвиях.
Атмoсфернoе давление в разных тoчках местнoсти мoжет значительнo oтличаться oт давления на метеoстанции, в зависимoсти oт услoвий рельефа (при пoдъёме на 10 м давление пoнижается примернo на 1 мм рт.ст.).